Location: Cypress Hills Dark-Sky Preserve - CHICO
(49.6176°N, 110.2634°W)
Time: 13:59:16
(UTC-06:00)

Amateur Radio Satellites - All Passes

Search period start: 20 September 2017 13:29
Search period end: 21 September 2017 13:29
Location: Cypress Hills Dark-Sky Preserve - CHICO, 49.6176°N, 110.2634°W

Satellite Date Start Highest point End Downlink Frequencies (MHz)
Time Altitude Azimuth
EO-79 20 Sep 13:32:31 13:35:25 18° 269° (W) 13:38:22 145.935-145.965
Oscar 19 20 Sep 13:37:32 13:42:42 69° 71° (ENE) 13:47:53 437.125/150
DX 1 20 Sep 13:42:36 13:44:30 13° 88° (E) 13:46:22 434.975-435.025
QB50P2 20 Sep 13:46:00 13:47:54 13° 272° (W) 13:49:49 145.880/145.840
YUBILEINY 20 Sep 13:46:14 13:54:58 88° 100° (E) 14:03:43 435.215
LO-87 20 Sep 13:52:27 13:54:57 18° 296° (WNW) 13:57:26 145.935 - 145.965
VELOX 1 20 Sep 13:56:21 14:00:41 56° 101° (E) 14:05:00 145.980
AO-7 20 Sep 14:02:54 14:09:59 33° 50° (NE) 14:17:04 .
BUGSAT 1 20 Sep 14:08:12 14:11:43 29° 264° (W) 14:15:17 437.445
O/OREOS (USA 219) 20 Sep 14:21:20 14:25:11 26° 256° (WSW) 14:29:00 437.305
SPROUT 20 Sep 14:23:46 14:28:00 57° 288° (WNW) 14:32:12 437.525
50 SAT 20 Sep 14:27:34 14:30:44 40° 99° (E) 14:33:53 437.505
Gurwin Techsat 1B 20 Sep 14:32:43 14:37:59 63° 258° (WSW) 14:43:17 435.225
SO-50 20 Sep 14:35:55 14:37:16 11° 109° (ESE) 14:38:38 436.795
ITAMSAT 1 20 Sep 14:36:00 14:39:54 22° 58° (ENE) 14:43:48 435.822/435.867
ESTCUBE 1 20 Sep 14:49:36 14:51:48 14° 304° (NW) 14:54:00 437.505/2401.250
DX 1 20 Sep 15:16:54 15:21:15 81° 286° (WNW) 15:25:35 434.975-435.025
UKube-1 20 Sep 15:17:33 15:21:52 70° 104° (ESE) 15:26:09 .
Oscar 19 20 Sep 15:18:48 15:22:31 20° 270° (W) 15:26:16 437.125/150
RS-15 20 Sep 15:26:59 15:39:07 83° 235° (SW) 15:50:35 29.354- 29.394
NO-84 20 Sep 15:32:23 15:35:57 48° 144° (SE) 15:39:12 435.350 FM
VELOX 1 20 Sep 15:33:35 15:36:46 20° 300° (WNW) 15:39:57 145.980
PCSat 20 Sep 15:38:47 15:43:20 28° 111° (ESE) 15:47:54 145.827
ITUPSAT 1 20 Sep 15:43:52 15:47:24 20° 91° (E) 15:50:53 437.325
YUBILEINY 20 Sep 15:46:03 15:53:02 26° 302° (WNW) 16:00:03 435.215
MOZHAYETS 4 20 Sep 15:48:29 15:52:08 22° 92° (E) 15:55:44
AO-7 20 Sep 15:53:44 16:02:05 79° 252° (WSW) 16:10:28 .
50 SAT 20 Sep 16:00:54 16:02:57 16° 297° (WNW) 16:05:00 437.505
SO-50 20 Sep 16:12:27 16:16:56 75° 127° (SE) 16:21:27 436.795
ITAMSAT 1 20 Sep 16:13:46 16:18:54 67° 257° (WSW) 16:24:05 435.822/435.867
DOVE 4 20 Sep 16:15:55 16:18:22 15° 59° (ENE) 16:20:46 437.250
BEESAT 20 Sep 16:22:19 16:26:55 43° 99° (E) 16:31:28 436.000
UKube-1 20 Sep 16:54:42 16:57:23 16° 302° (WNW) 17:00:04 .
DX 1 20 Sep 16:55:01 16:56:43 12° 305° (NW) 16:58:26 434.975-435.025
XW-2D 20 Sep 16:57:26 16:57:58 10° 57° (ENE) 16:58:31 145.860 - 145.880
XW-2B 20 Sep 17:08:20 17:10:06 13° 59° (ENE) 17:11:51 145.730 - 145.750
HO-68 20 Sep 17:09:43 17:13:46 16° 42° (NE) 17:17:48 435.675
NO-84 20 Sep 17:10:01 17:13:22 43° 342° (NNW) 17:16:28 435.350 FM
XW-2F 20 Sep 17:11:09 17:12:57 13° 59° (ENE) 17:14:47 145.980 - 146.000
ITUPSAT 1 20 Sep 17:20:51 17:25:37 60° 290° (WNW) 17:30:21 437.325
PCSat 20 Sep 17:21:04 17:26:25 59° 311° (NW) 17:31:49 145.827
MOZHAYETS 4 20 Sep 17:25:03 17:29:34 51° 290° (WNW) 17:34:03
XW-2C 20 Sep 17:28:12 17:31:02 20° 63° (ENE) 17:33:53 145.795 - 145.815
LilacSat-2 20 Sep 17:35:50 17:39:01 25° 65° (ENE) 17:42:13 437.200
CUTE-I 20 Sep 17:37:22 17:41:56 30° 62° (ENE) 17:46:32 437.470
RS-15 20 Sep 17:40:42 17:49:43 27° 260° (W) 17:58:26 29.354- 29.394
CUBESAT XI-V 20 Sep 17:41:49 17:46:27 61° 101° (E) 17:51:01 437.345
NUDT-PHONESAT 20 Sep 17:44:54 17:47:47 21° 64° (ENE) 17:50:41 437.300
AO-7 20 Sep 17:50:37 17:56:13 19° 273° (W) 18:01:50 .
DOVE 4 20 Sep 17:51:07 17:55:35 76° 257° (WSW) 17:59:52 437.250
SO-50 20 Sep 17:54:05 17:57:51 25° 328° (NNW) 18:01:38 436.795
BEESAT 20 Sep 18:00:26 18:04:31 29° 297° (WNW) 18:08:36 436.000
KAITUO 1B 20 Sep 18:07:02 18:10:32 36° 69° (ENE) 18:14:03 145.475/437.950
KKS-1 20 Sep 18:10:16 18:14:30 42° 99° (E) 18:18:43 437.445
CUBEBUG 2 20 Sep 18:16:24 18:17:12 10° 53° (NE) 18:18:01 437.445
CUTE 1.7 + AOD 2 20 Sep 18:20:36 18:23:33 18° 61° (ENE) 18:26:30 437.475
XW-2D 20 Sep 18:27:37 18:31:28 83° 76° (ENE) 18:35:21 145.860 - 145.880
XW-2B 20 Sep 18:39:53 18:43:43 76° 258° (WSW) 18:47:36 145.730 - 145.750
XW-2F 20 Sep 18:42:43 18:46:32 73° 257° (WSW) 18:50:25 145.980 - 146.000
STARS 20 Sep 18:44:28 18:48:38 40° 98° (E) 18:52:47 437.465
NO-84 20 Sep 18:48:18 18:51:15 30° 3° (N) 18:54:00 435.350 FM
HO-68 20 Sep 18:53:08 19:00:04 57° 65° (ENE) 19:07:04 435.675
XW-2A 20 Sep 18:54:09 18:55:59 14° 62° (ENE) 18:57:50 145.665 - 145.685
ITUPSAT 1 20 Sep 19:01:15 19:02:29 11° 309° (NW) 19:03:44 437.325
XW-2C 20 Sep 19:01:17 19:04:57 43° 262° (W) 19:08:40 145.795 - 145.815
PCSat 20 Sep 19:07:08 19:10:57 19° 334° (NNW) 19:14:48 145.827
LilacSat-2 20 Sep 19:09:37 19:13:09 33° 263° (W) 19:16:44 437.200
CUTE-I 20 Sep 19:16:41 19:21:48 48° 261° (W) 19:26:57 437.470
NUDT-PHONESAT 20 Sep 19:17:56 19:21:26 37° 262° (W) 19:25:00 437.300
CUBESAT XI-V 20 Sep 19:20:01 19:23:25 20° 300° (WNW) 19:26:47 437.345
AO-73 20 Sep 19:23:22 19:25:52 15° 57° (ENE) 19:28:23 145.935
ZACube-1 20 Sep 19:23:47 19:26:32 17° 59° (ENE) 19:29:20 437.345
Oscar 11 20 Sep 19:27:20 19:29:07 12° 56° (NE) 19:30:53 .
STRAND 1 20 Sep 19:27:39 19:29:53 13° 86° (E) 19:32:07 437.568
SEEDS 20 Sep 19:33:23 19:37:32 55° 72° (ENE) 19:41:42 437.485
SO-50 20 Sep 19:37:48 19:39:51 13° 353° (N) 19:41:55 436.795
KAITUO 1B 20 Sep 19:41:40 19:44:38 21° 267° (W) 19:47:37 145.475/437.950
KKS-1 20 Sep 19:47:12 19:50:52 26° 297° (WNW) 19:54:31 437.445
CUBEBUG 2 20 Sep 19:48:45 19:52:57 70° 74° (ENE) 19:57:20 437.445
CUTE 1.7 + AOD 2 20 Sep 19:54:44 19:58:59 60° 260° (W) 20:03:15 437.475
UWE-3 20 Sep 20:02:47 20:06:59 59° 72° (ENE) 20:11:22 435.000/436.395/437.385
XW-2D 20 Sep 20:06:08 20:06:13 10° 274° (W) 20:06:16 145.860 - 145.880
AAUSAT CUBESAT 2 20 Sep 20:06:27 20:10:33 57° 72° (ENE) 20:14:39 437.432
STARS 20 Sep 20:21:09 20:24:49 26° 297° (WNW) 20:28:28 437.465
XW-2A 20 Sep 20:24:58 20:28:18 51° 260° (W) 20:31:41 145.665 - 145.685
NO-84 20 Sep 20:25:54 20:29:00 64° 26° (NNE) 20:31:54 435.350 FM
DELFI C3 20 Sep 20:33:47 20:35:27 12° 58° (ENE) 20:37:06 145.870
HO-68 20 Sep 20:41:44 20:48:08 35° 265° (W) 20:54:37 435.675
Max Valier Satellite 20 Sep 20:45:37 20:46:50 11° 58° (ENE) 20:48:03 145.860
PCSat 20 Sep 20:54:25 20:56:37 12° 0° (N) 20:58:49 145.827
AO-73 20 Sep 20:57:09 21:01:29 80° 258° (WSW) 21:05:57 145.935
ZACube-1 20 Sep 20:57:58 21:02:17 71° 259° (W) 21:06:45 437.345
Oscar 11 20 Sep 21:00:11 21:04:32 82° 73° (ENE) 21:08:56 .
STRAND 1 20 Sep 21:04:42 21:09:53 82° 105° (ESE) 21:15:02 437.568
SEEDS 20 Sep 21:10:41 21:13:34 18° 270° (W) 21:16:27 437.485
SO-50 20 Sep 21:19:24 21:22:09 16° 18° (NNE) 21:24:55 436.795
CUBEBUG 2 20 Sep 21:27:50 21:30:07 14° 273° (W) 21:32:27 437.445
Tancredo 1 20 Sep 21:34:53 21:37:04 22° 145° (SE) 21:39:15 437.200
BEESAT 3 20 Sep 21:37:06 21:41:05 62° 125° (SE) 21:45:06 437.485
BEESAT 2 20 Sep 21:37:33 21:40:45 23° 116° (ESE) 21:43:59 435.950
AO-85 20 Sep 21:39:40 21:42:52 25° 117° (ESE) 21:46:08 145.980
UWE-3 20 Sep 21:41:02 21:43:52 17° 271° (W) 21:46:47 435.000/436.395/437.385
AAUSAT CUBESAT 2 20 Sep 21:43:40 21:46:22 16° 270° (W) 21:49:02 437.432
EO-88 20 Sep 21:51:11 21:54:37 39° 70° (ENE) 21:58:05 145.990 - 145.960
YUBILEINY 20 Sep 21:55:31 22:00:20 15° 46° (NE) 22:05:09 435.215
FO-29 20 Sep 22:01:25 22:06:21 37° 97° (E) 22:11:40 435.910
UNISAT 6 20 Sep 22:03:34 22:06:09 15° 88° (E) 22:08:44 437.425
NO-84 20 Sep 22:03:47 22:06:03 20° 225° (SW) 22:08:13 435.350 FM
DELFI C3 20 Sep 22:05:39 22:09:37 83° 256° (WSW) 22:13:36 145.870
ISS 20 Sep 22:12:15 22:13:45 13° 136° (SE) 22:15:14 437.550
Max Valier Satellite 20 Sep 22:16:22 22:20:04 82° 255° (WSW) 22:23:50 145.860
PRISM 20 Sep 22:27:16 22:28:16 11° 87° (E) 22:29:16 437.425
TIGRISAT 20 Sep 22:27:25 22:31:04 22° 92° (E) 22:34:43 435.000
PCSat 20 Sep 22:38:21 22:42:15 20° 27° (NNE) 22:46:09 145.827
ESTCUBE 1 20 Sep 22:39:18 22:42:38 21° 60° (ENE) 22:46:00 437.505/2401.250
Oscar 11 20 Sep 22:39:25 22:41:16 12° 273° (W) 22:43:07 .
STRAND 1 20 Sep 22:45:00 22:48:28 18° 304° (NW) 22:51:54 437.568
nSIGHT-1 20 Sep 22:56:17 22:59:06 28° 146° (SE) 23:01:56 .
LO-87 20 Sep 22:58:22 23:01:32 32° 69° (ENE) 23:04:44 145.935 - 145.965
SO-50 20 Sep 22:59:24 23:03:46 42° 41° (NE) 23:08:09 436.795
Tancredo 1 20 Sep 23:08:40 23:11:24 83° 348° (NNW) 23:14:07 437.200
BEESAT 2 20 Sep 23:14:17 23:18:13 50° 315° (NW) 23:22:12 435.950
BEESAT 3 20 Sep 23:15:37 23:18:59 24° 326° (NW) 23:22:21 437.485
AO-85 20 Sep 23:19:19 23:23:03 43° 317° (NW) 23:26:54 145.980
VELOX 1 20 Sep 23:24:02 23:26:01 13° 55° (NE) 23:28:00 145.980
EO-88 20 Sep 23:25:48 23:28:26 19° 268° (W) 23:31:06 145.990 - 145.960
UNISAT 6 20 Sep 23:38:44 23:43:24 79° 287° (WNW) 23:48:05 437.425
SPROUT 20 Sep 23:46:04 23:49:25 23° 63° (ENE) 23:52:48 437.525
ISS 20 Sep 23:46:26 23:49:40 57° 154° (SSE) 23:52:54 437.550
FO-29 20 Sep 23:46:40 23:51:31 38° 295° (WNW) 23:56:43 435.910
YUBILEINY 20 Sep 23:50:58 23:59:32 56° 73° (ENE) 00:08:06 435.215
PRISM 21 Sep 00:00:03 00:04:09 84° 282° (WNW) 00:08:12 437.425
TIGRISAT 21 Sep 00:03:31 00:08:00 51° 290° (WNW) 00:12:32 435.000
ESTCUBE 1 21 Sep 00:14:36 00:19:04 58° 259° (W) 00:23:34 437.505/2401.250
PCSat 21 Sep 00:21:21 00:26:45 61° 50° (NE) 00:32:07 145.827
AIST 2D 21 Sep 00:22:37 00:26:00 40° 98° (E) 00:29:21 435.315
NANOSAT C BR1 21 Sep 00:27:16 00:30:17 19° 91° (E) 00:33:18 145.865
nSIGHT-1 21 Sep 00:31:58 00:35:13 81° 345° (NNW) 00:38:29 .
LO-87 21 Sep 00:32:20 00:35:02 20° 267° (W) 00:37:46 145.935 - 145.965
SO-50 21 Sep 00:40:00 00:44:11 36° 240° (WSW) 00:48:24 436.795
DX 1 21 Sep 00:41:35 00:44:47 21° 61° (ENE) 00:48:00 434.975-435.025
UKube-1 21 Sep 00:42:15 00:44:39 15° 57° (ENE) 00:47:03 .
Tancredo 1 21 Sep 00:43:26 00:46:06 52° 2° (N) 00:48:47 437.200
BEESAT 2 21 Sep 00:54:32 00:56:53 15° 337° (NNW) 00:59:14 435.950
DUCHIFAT 1 21 Sep 00:56:59 01:00:48 31° 96° (E) 01:04:36 145.980
BEESAT 3 21 Sep 00:57:08 00:57:55 10° 349° (NNW) 00:58:41 437.485
VELOX 1 21 Sep 00:57:22 01:01:47 85° 76° (ENE) 01:06:12 145.980
50 SAT 21 Sep 01:01:26 01:04:21 29° 68° (ENE) 01:07:16 437.505
AO-85 21 Sep 01:02:26 01:04:29 13° 341° (NNW) 01:06:35 145.980
POLYITAN 1 21 Sep 01:05:41 01:09:51 47° 99° (E) 01:14:01 437.675
EO-79 21 Sep 01:10:53 01:15:06 54° 100° (E) 01:19:17 145.935-145.965
UNISAT 6 21 Sep 01:17:15 01:19:23 13° 305° (NW) 01:21:30 437.425
SPROUT 21 Sep 01:21:02 01:25:05 43° 261° (W) 01:29:11 437.525
ISS 21 Sep 01:22:54 01:26:11 61° 355° (N) 01:29:27 437.550
QB50P2 21 Sep 01:23:19 01:27:37 79° 104° (ESE) 01:31:54 145.880/145.840
PRISM 21 Sep 01:37:25 01:38:44 11° 304° (NW) 01:40:03 437.425
BUGSAT 1 21 Sep 01:44:51 01:48:30 28° 95° (E) 01:52:10 437.445
Oscar 19 21 Sep 01:45:44 01:49:06 17° 89° (E) 01:52:26 437.125/150
YUBILEINY 21 Sep 01:48:13 01:56:04 40° 275° (W) 02:03:57 435.215
AIST 2D 21 Sep 01:56:30 01:58:55 18° 296° (WNW) 02:01:20 435.315
M-CUBED/EXP-1 PRIME 21 Sep 01:57:36 02:00:46 34° 103° (ESE) 02:03:48 437.505
BEESAT 21 Sep 01:57:59 02:00:24 14° 54° (NE) 02:02:49 436.000
NANOSAT C BR1 21 Sep 02:02:09 02:06:18 52° 289° (WNW) 02:10:27 145.865
PCSat 21 Sep 02:05:19 02:09:47 27° 250° (WSW) 02:14:14 145.827
nSIGHT-1 21 Sep 02:08:30 02:11:44 59° 4° (N) 02:14:59 .
UKube-1 21 Sep 02:15:47 02:20:06 80° 256° (WSW) 02:24:25 .
DX 1 21 Sep 02:16:23 02:20:38 53° 259° (W) 02:24:55 434.975-435.025
Tancredo 1 21 Sep 02:18:01 02:20:44 66° 203° (SSW) 02:23:26 437.200
DUCHIFAT 1 21 Sep 02:32:41 02:36:26 31° 294° (WNW) 02:40:11 145.980
50 SAT 21 Sep 02:34:22 02:36:53 20° 266° (W) 02:39:27 437.505
BEESAT 3 21 Sep 02:36:16 02:37:17 11° 13° (NNE) 02:38:18 437.485
VELOX 1 21 Sep 02:37:03 02:38:50 12° 273° (W) 02:40:38 145.980
POLYITAN 1 21 Sep 02:42:03 02:45:22 22° 298° (WNW) 02:48:40 437.675
Gurwin Techsat 1B 21 Sep 02:44:29 02:49:25 37° 96° (E) 02:54:19 435.225
AO-85 21 Sep 02:46:01 02:46:42 10° 6° (N) 02:47:24 145.980
EO-79 21 Sep 02:47:25 02:50:31 20° 299° (WNW) 02:53:36 145.935-145.965
MOZHAYETS 4 21 Sep 02:54:10 02:58:19 35° 66° (ENE) 03:02:32
ITUPSAT 1 21 Sep 02:54:22 02:58:45 37° 65° (ENE) 03:03:10 437.325
O/OREOS (USA 219) 21 Sep 02:59:15 03:02:36 21° 102° (ESE) 03:05:59 437.305
ISS 21 Sep 02:59:32 03:02:50 76° 13° (NNE) 03:06:09 437.550
QB50P2 21 Sep 03:00:28 03:02:51 15° 302° (WNW) 03:05:13 145.880/145.840
CUBESAT XI-V 21 Sep 03:14:09 03:16:54 16° 57° (ENE) 03:19:39 437.345
BUGSAT 1 21 Sep 03:20:07 03:23:52 33° 293° (WNW) 03:27:39 437.445
Oscar 19 21 Sep 03:23:49 03:29:01 77° 287° (WNW) 03:34:10 437.125/150
M-CUBED/EXP-1 PRIME 21 Sep 03:32:31 03:35:02 19° 303° (WNW) 03:37:28 437.505
BEESAT 21 Sep 03:32:40 03:37:25 81° 74° (ENE) 03:42:14 436.000
KKS-1 21 Sep 03:39:48 03:40:47 11° 53° (NE) 03:41:46 437.445
nSIGHT-1 21 Sep 03:44:54 03:48:09 64° 204° (SSW) 03:51:22 .
AO-7 21 Sep 03:50:57 03:57:45 27° 92° (E) 04:04:31 .
Tancredo 1 21 Sep 03:53:32 03:54:53 13° 220° (SW) 03:56:12 437.200
BEESAT 3 21 Sep 04:12:42 04:16:10 26° 36° (NE) 04:19:34 437.485
BEESAT 2 21 Sep 04:13:09 04:15:45 16° 25° (NNE) 04:18:20 435.950
ITAMSAT 1 21 Sep 04:22:18 04:26:53 30° 95° (E) 04:31:27 435.822/435.867
Gurwin Techsat 1B 21 Sep 04:24:30 04:29:22 38° 296° (WNW) 04:34:14 435.225
AO-85 21 Sep 04:25:24 04:28:40 21° 31° (NNE) 04:32:05 145.980
MOZHAYETS 4 21 Sep 04:31:21 04:35:29 32° 265° (W) 04:39:41
ITUPSAT 1 21 Sep 04:32:22 04:36:37 32° 264° (W) 04:40:55 437.325
ISS 21 Sep 04:36:10 04:39:10 32° 213° (SSW) 04:42:09 437.550
O/OREOS (USA 219) 21 Sep 04:37:13 04:41:39 54° 301° (WNW) 04:46:08 437.305
CUBESAT XI-V 21 Sep 04:48:54 04:53:38 86° 256° (WSW) 04:58:23 437.345
Oscar 19 21 Sep 05:04:44 05:07:31 15° 307° (NW) 05:10:18 437.125/150
KKS-1 21 Sep 05:12:07 05:16:31 67° 72° (ENE) 05:20:55 437.445
BEESAT 21 Sep 05:13:13 05:15:49 14° 272° (W) 05:18:26 436.000
nSIGHT-1 21 Sep 05:22:06 05:23:59 15° 222° (SW) 05:25:52 .
AO-7 21 Sep 05:43:05 05:51:24 81° 293° (WNW) 05:59:41 .
STARS 21 Sep 05:44:52 05:49:09 62° 72° (ENE) 05:53:29 437.465
DOVE 4 21 Sep 05:45:43 05:48:43 19° 92° (E) 05:51:46 437.250
BEESAT 3 21 Sep 05:50:03 05:53:58 52° 236° (WSW) 05:57:47 437.485
BEESAT 2 21 Sep 05:50:15 05:54:18 60° 47° (NE) 05:58:17 435.950
RS-15 21 Sep 05:54:48 06:05:58 43° 109° (ESE) 06:17:06 29.354- 29.394
ITAMSAT 1 21 Sep 06:01:35 06:06:30 44° 294° (WNW) 06:11:25 435.822/435.867
AO-85 21 Sep 06:05:16 06:09:37 87° 50° (NE) 06:14:19 145.980
O/OREOS (USA 219) 21 Sep 06:20:30 06:22:09 12° 324° (NW) 06:23:49 437.305
CUBESAT XI-V 21 Sep 06:29:56 06:31:43 12° 274° (W) 06:33:31 437.345
XW-2C 21 Sep 06:30:19 06:32:36 15° 90° (E) 06:34:51 145.795 - 145.815
LilacSat-2 21 Sep 06:38:40 06:41:32 20° 92° (E) 06:44:21 437.200
NUDT-PHONESAT 21 Sep 06:44:29 06:46:46 15° 90° (E) 06:49:01 437.300
STRAND 1 21 Sep 06:46:49 06:51:10 29° 62° (ENE) 06:55:33 437.568
KKS-1 21 Sep 06:50:52 06:53:32 16° 271° (W) 06:56:13 437.445
KAITUO 1B 21 Sep 07:07:36 07:10:53 27° 95° (E) 07:14:07 145.475/437.950
DOVE 4 21 Sep 07:22:40 07:26:42 49° 289° (WNW) 07:30:51 437.250
STARS 21 Sep 07:23:08 07:25:55 16° 270° (W) 07:28:41 437.465
BEESAT 2 21 Sep 07:28:45 07:31:39 19° 246° (WSW) 07:34:32 435.950
CUTE-I 21 Sep 07:28:51 07:34:02 49° 99° (E) 07:39:11 437.470
XW-2D 21 Sep 07:29:49 07:33:39 67° 102° (ESE) 07:37:25 145.860 - 145.880
CUTE 1.7 + AOD 2 21 Sep 07:35:56 07:38:53 18° 90° (E) 07:41:47 437.475
CUBEBUG 2 21 Sep 07:36:30 07:38:29 12° 86° (E) 07:40:29 437.445
AO-7 21 Sep 07:36:42 07:43:05 26° 316° (NW) 07:49:27 .
XW-2B 21 Sep 07:42:03 07:45:56 88° 112° (ESE) 07:49:44 145.730 - 145.750
XW-2F 21 Sep 07:44:23 07:48:14 89° 105° (ESE) 07:52:01 145.980 - 146.000
AO-85 21 Sep 07:46:56 07:49:32 15° 248° (WSW) 07:52:13 145.980
XW-2C 21 Sep 08:03:21 08:07:07 53° 288° (WNW) 08:10:49 145.795 - 145.815
HO-68 21 Sep 08:03:28 08:10:09 40° 97° (E) 08:16:48 435.675
RS-15 21 Sep 08:05:26 08:17:49 75° 315° (NW) 08:30:08 29.354- 29.394
LilacSat-2 21 Sep 08:12:20 08:15:59 40° 290° (WNW) 08:19:35 437.200
NUDT-PHONESAT 21 Sep 08:17:16 08:20:56 50° 288° (WNW) 08:24:32 437.300
FO-29 21 Sep 08:19:21 08:23:56 27° 61° (ENE) 08:28:17 435.910
STRAND 1 21 Sep 08:25:18 08:30:11 46° 261° (W) 08:35:07 437.568
AO-73 21 Sep 08:41:34 08:44:27 16° 88° (E) 08:47:20 145.935
KAITUO 1B 21 Sep 08:41:36 08:44:50 27° 293° (WNW) 08:48:03 145.475/437.950
ZACube-1 21 Sep 08:42:27 08:45:40 18° 90° (E) 08:48:52 437.345
Oscar 11 21 Sep 08:45:02 08:46:33 12° 86° (E) 08:48:04 .
SEEDS 21 Sep 08:48:11 08:52:21 59° 100° (E) 08:56:28 437.485
XW-2D 21 Sep 09:05:19 09:07:20 14° 300° (WNW) 09:09:19 145.860 - 145.880
UNISAT 6 21 Sep 09:06:23 09:09:38 21° 61° (ENE) 09:12:56 437.425
CUTE-I 21 Sep 09:09:18 09:13:53 30° 299° (WNW) 09:18:27 437.470
CUTE 1.7 + AOD 2 21 Sep 09:10:53 09:15:02 53° 289° (WNW) 09:19:10 437.475
CUBEBUG 2 21 Sep 09:11:03 09:15:44 89° 103° (ESE) 09:20:29 437.445
XW-2A 21 Sep 09:14:44 09:18:13 87° 106° (ESE) 09:21:38 145.665 - 145.685
XW-2B 21 Sep 09:18:19 09:19:28 11° 302° (WNW) 09:20:38 145.730 - 145.750
AAUSAT CUBESAT 2 21 Sep 09:19:19 09:23:24 58° 100° (E) 09:27:27 437.432
PRISM 21 Sep 09:19:48 09:22:16 16° 59° (ENE) 09:24:45 437.425
XW-2F 21 Sep 09:20:41 09:21:43 11° 302° (WNW) 09:22:44 145.980 - 146.000
UWE-3 21 Sep 09:23:48 09:28:27 74° 101° (ESE) 09:33:08 435.000/436.395/437.385
TIGRISAT 21 Sep 09:30:10 09:33:58 30° 65° (ENE) 09:37:52 435.000
HO-68 21 Sep 09:51:10 09:58:05 52° 297° (WNW) 10:04:58 435.675
FO-29 21 Sep 10:03:16 10:08:51 53° 259° (W) 10:14:02 435.910
AO-73 21 Sep 10:16:35 10:21:10 68° 287° (WNW) 10:25:42 145.935
ZACube-1 21 Sep 10:17:47 10:22:19 60° 288° (WNW) 10:26:50 437.345
Oscar 11 21 Sep 10:18:56 10:23:19 87° 291° (WNW) 10:27:40 .
RS-15 21 Sep 10:21:03 10:32:36 42° 345° (NNW) 10:43:54 29.354- 29.394
SEEDS 21 Sep 10:24:48 10:27:37 18° 299° (WNW) 10:30:25 437.485
EO-79 21 Sep 10:35:54 10:36:15 10° 54° (NE) 10:36:36 145.935-145.965
UNISAT 6 21 Sep 10:41:44 10:45:59 53° 260° (W) 10:50:22 437.425
QB50P2 21 Sep 10:46:29 10:48:41 14° 57° (ENE) 10:50:54 145.880/145.840
EO-88 21 Sep 10:49:01 10:52:13 27° 95° (E) 10:55:24 145.990 - 145.960
CUBEBUG 2 21 Sep 10:49:06 10:51:44 15° 302° (WNW) 10:54:23 437.445
PRISM 21 Sep 10:53:00 10:57:05 66° 258° (WSW) 11:01:11 437.425
AAUSAT CUBESAT 2 21 Sep 10:55:44 10:58:27 17° 299° (WNW) 11:01:10 437.432
AIST 2D 21 Sep 11:00:50 11:03:57 29° 68° (ENE) 11:07:06 435.315
UWE-3 21 Sep 11:01:21 11:04:23 18° 301° (WNW) 11:07:27 435.000/436.395/437.385
TIGRISAT 21 Sep 11:06:40 11:10:36 34° 264° (W) 11:14:39 435.000
YUBILEINY 21 Sep 11:08:17 11:10:55 12° 67° (ENE) 11:13:34 435.215
DELFI C3 21 Sep 11:12:43 11:16:40 89° 104° (ESE) 11:20:34 145.870
M-CUBED/EXP-1 PRIME 21 Sep 11:14:05 11:16:35 16° 54° (NE) 11:18:59 437.505
Max Valier Satellite 21 Sep 11:15:32 11:19:19 75° 102° (ESE) 11:23:03 145.860
NANOSAT C BR1 21 Sep 11:23:14 11:26:37 24° 63° (ENE) 11:30:02 145.865
O/OREOS (USA 219) 21 Sep 11:25:03 11:27:59 16° 42° (NE) 11:30:56 437.305
HO-68 21 Sep 11:40:36 11:44:16 15° 319° (NW) 11:47:56 435.675
DUCHIFAT 1 21 Sep 11:52:33 11:56:27 40° 68° (ENE) 12:00:24 145.980
LO-87 21 Sep 11:54:06 11:56:59 22° 94° (E) 11:59:51 145.935 - 145.965
AO-73 21 Sep 11:55:09 11:56:32 11° 306° (NW) 11:57:56 145.935
Oscar 11 21 Sep 11:56:49 11:58:47 13° 304° (WNW) 12:00:44 .
ZACube-1 21 Sep 11:57:18 11:57:41 10° 307° (NW) 11:58:02 437.345
POLYITAN 1 21 Sep 12:01:59 12:06:08 61° 72° (ENE) 12:10:21 437.675
ESTCUBE 1 21 Sep 12:03:04 12:06:35 22° 92° (E) 12:10:05 437.505/2401.250
EO-79 21 Sep 12:07:02 12:11:12 69° 73° (ENE) 12:15:26 145.935-145.965
QB50P2 21 Sep 12:19:40 12:23:52 81° 255° (WSW) 12:28:09 145.880/145.840
EO-88 21 Sep 12:22:43 12:25:50 26° 293° (WNW) 12:28:54 145.990 - 145.960
Gurwin Techsat 1B 21 Sep 12:32:36 12:35:55 17° 54° (NE) 12:39:15 435.225
AIST 2D 21 Sep 12:34:18 12:37:11 23° 266° (W) 12:40:04 435.315
RS-15 21 Sep 12:37:07 12:48:43 44° 19° (NNE) 12:59:49 29.354- 29.394
BUGSAT 1 21 Sep 12:38:29 12:42:07 34° 67° (ENE) 12:45:50 437.445
VELOX 1 21 Sep 12:44:56 12:46:28 12° 87° (E) 12:48:01 145.980
M-CUBED/EXP-1 PRIME 21 Sep 12:46:18 12:50:36 76° 251° (WSW) 12:54:37 437.505
DELFI C3 21 Sep 12:49:30 12:50:47 11° 303° (WNW) 12:52:04 145.870
Max Valier Satellite 21 Sep 12:51:01 12:52:36 12° 301° (WNW) 12:54:11 145.860
YUBILEINY 21 Sep 12:57:13 13:05:35 55° 90° (E) 13:13:58 435.215
NANOSAT C BR1 21 Sep 12:58:11 13:02:08 40° 262° (W) 13:06:09 145.865
SPROUT 21 Sep 13:02:21 13:05:47 23° 93° (E) 13:09:13 437.525
O/OREOS (USA 219) 21 Sep 13:03:30 13:08:08 85° 64° (ENE) 13:12:45 437.305
AO-7 21 Sep 13:06:00 13:11:15 19° 37° (NE) 13:16:27 .
Oscar 19 21 Sep 13:06:13 13:11:01 39° 65° (ENE) 13:15:50 437.125/150
